{"data":{"norad_id":61702,"intl_designator":"2024-195R","name":"STARLINK-32299","alt_names":[],"object_type":"PAYLOAD","status":"ACTIVE","operator":null,"country":"US","launch_date":"2024-10-30","launch_site_code":"AFWTR","launch_vehicle":null,"mission":null,"orbit_class":"UNKNOWN","rcs_meters":null,"size_class":null,"mass_kg":null,"dimensions":null,"purposes":["comms"],"wikipedia_slug":null,"has_3d_model":false,"image_url":null,"decayed_at":null,"tle_current":{"epoch":"2026-05-24T07:30:25.511328Z","epoch_age_seconds":130858,"freshness":"FRESH","line1":"1 61702U 24195R   26144.31279527  .00003303  00000+0  10882-3 0  9990","line2":"2 61702  53.1613 163.1116 0001634  86.6153 273.5037 15.34407639 88846","mean_motion":15.34407639,"eccentricity":0.0001634,"inclination_deg":53.1613,"raan_deg":163.1116,"arg_perigee_deg":86.6153,"mean_anomaly_deg":273.5037,"bstar":0.00010882,"rev_number":8884,"period_min":93.847290863233,"perigee_km":461.56274599814,"apogee_km":463.79832516877,"semimajor_km":6840.8175355835,"source":"CELESTRAK","updated_at":"2026-05-25T13:38:19.442415Z"}}}